Date,TemperatureHighF,TemperatureAvgF,TemperatureLowF,DewpointHighF,DewpointAvgF,DewpointLowF,HumidityHigh,HumidityAvg,HumidityLow,PressureMaxIn,PressureMinIn,WindSpeedMaxMPH,WindSpeedAvgMPH,GustSpeedMaxMPH,PrecipitationSumIn
2014-1-1,69.4,53.4,39.4,36.2,31.2,26.7,60,44,25,30.18,30.07,7,3,8,0.00
2014-1-2,75.0,56.9,43.0,37.6,31.0,27.9,60,39,20,30.18,30.05,8,3,9,0.00
2014-1-3,74.6,57.0,43.2,35.2,31.1,26.1,51,38,21,30.07,29.92,7,4,10,0.00
2014-1-4,65.6,53.2,45.2,39.1,33.0,30.3,62,47,27,30.03,29.93,4,2,6,0.00
2014-1-5,63.6,51.7,40.9,32.1,27.6,9.4,63,41,19,30.17,30.03,9,4,11,0.00
2014-1-6,66.1,51.9,38.8,24.4,16.0,8.5,31,24,18,30.26,30.12,8,4,10,0.00
2014-1-7,68.9,52.8,37.8,26.7,20.2,12.6,37,28,17,30.16,30.03,7,3,8,0.00
2014-1-8,66.9,54.1,41.8,31.7,24.9,20.7,48,33,19,30.10,30.02,6,3,8,0.00
2014-1-9,64.7,47.5,39.1,29.4,23.5,20.7,50,39,22,30.07,29.94,7,2,9,0.00
2014-1-10,64.8,50.6,37.1,32.1,26.1,22.9,58,39,24,30.15,30.01,8,3,10,0.00
2014-1-11,70.8,53.3,38.6,34.3,29.6,25.2,58,41,25,30.22,30.05,6,2,7,0.00
2014-1-12,68.6,54.1,41.7,37.2,31.5,28.8,60,43,26,30.20,29.98,7,3,10,0.00
2014-1-13,69.7,54.8,41.6,30.3,24.6,17.9,50,32,18,30.34,30.19,7,3,10,0.00
2014-1-14,70.7,51.8,36.8,29.0,24.2,20.2,52,35,19,30.34,30.22,9,3,12,0.00
2014-1-15,72.5,55.3,40.8,31.5,24.1,18.4,42,30,18,30.32,30.17,6,3,7,0.00
2014-1-16,72.4,55.3,40.0,32.8,26.7,22.3,52,35,20,30.18,30.05,8,3,10,0.00
2014-1-17,75.2,57.4,42.7,31.2,23.8,18.7,42,28,17,30.21,30.07,6,3,9,0.00
2014-1-18,75.6,56.7,39.7,29.5,23.7,18.2,42,29,16,30.17,30.06,5,3,6,0.00
2014-1-19,74.0,51.6,42.9,30.8,23.5,20.1,40,34,17,30.21,30.10,5,3,7,0.00
2014-1-23,59.3,56.8,52.1,29.3,25.7,24.4,33,29,25,30.19,30.07,5,2,6,0.00
2014-1-24,66.3,58.3,49.8,30.6,25.8,21.9,34,28,23,30.34,30.19,8,4,11,0.00
2014-1-25,72.5,62.5,52.0,47.6,34.6,24.3,46,35,23,30.25,30.12,7,3,10,0.00
2014-1-26,73.0,59.4,45.8,38.8,32.4,25.5,52,37,23,30.13,29.98,7,3,10,0.00
2014-1-27,71.9,59.0,49.6,36.2,29.7,23.9,45,33,23,30.05,29.95,8,3,12,0.00
2014-1-28,71.7,56.3,42.0,36.0,29.8,25.4,60,37,23,30.12,30.00,9,3,11,0.00
2014-1-29,74.1,57.2,41.1,30.8,25.4,20.5,50,30,18,30.12,29.98,6,3,7,0.00
2014-1-30,78.1,61.8,44.7,34.0,28.3,23.3,45,29,16,29.98,29.83,9,3,12,0.00
2014-1-31,71.2,63.5,55.6,38.9,33.1,27.2,50,32,23,29.89,29.79,13,7,16,0.00
2014-2-1,62.5,54.4,49.5,45.7,36.0,26.9,74,50,32,29.98,29.82,9,4,14,0.01
2014-2-2,62.9,50.9,36.7,30.3,26.5,22.9,58,39,27,30.10,29.94,5,2,7,0.00
2014-2-3,64.6,49.7,41.1,33.0,26.8,20.2,68,42,22,29.94,29.77,9,3,14,0.00
2014-2-4,60.6,47.0,34.9,39.2,30.7,28.0,79,55,32,30.08,29.91,6,2,9,0.00
2014-2-5,60.8,50.1,42.5,36.5,30.7,27.9,60,48,33,30.05,29.93,7,3,9,0.00
2014-2-6,56.2,47.7,38.4,35.5,31.6,28.0,69,54,40,30.05,29.93,6,2,7,0.00
2014-2-7,66.7,54.2,41.8,42.6,35.3,31.8,74,50,31,30.15,29.96,7,3,10,0.00
2014-2-8,71.3,55.4,41.5,40.3,33.7,31.2,68,45,26,30.24,30.13,6,3,9,0.00
2014-2-9,76.7,60.2,43.6,41.5,35.6,30.9,62,41,25,30.19,30.04,7,3,11,0.00
2014-2-10,76.1,61.4,46.4,40.4,35.1,31.8,56,39,24,30.07,29.91,10,4,15,0.00
2014-2-11,73.7,60.3,46.1,40.9,33.7,28.4,62,38,21,30.11,29.94,9,4,12,0.00
2014-2-12,76.7,60.8,45.1,35.7,29.8,26.2,53,32,18,30.18,30.05,8,4,10,0.00
2014-2-13,80.9,63.3,45.4,36.0,30.2,25.2,48,30,18,30.15,30.01,8,3,10,0.00
2014-2-14,85.1,66.5,49.1,38.9,32.3,27.2,48,29,17,30.14,30.03,8,3,10,0.00
2014-2-15,87.3,70.4,49.8,38.7,32.0,27.5,42,25,13,30.11,30.01,6,3,8,0.00
2014-2-16,60.5,56.9,53.0,30.3,29.0,27.8,39,34,30,30.05,30.01,4,2,4,0.00
2014-2-20,66.8,58.5,53.7,20.5,18.6,16.8,23,21,14,30.07,30.03,8,4,9,0.00
2014-2-21,76.1,59.5,43.5,27.7,20.5,15.4,38,22,14,30.07,29.91,7,3,8,0.00
2014-2-22,76.6,61.0,42.8,29.8,22.8,18.3,38,24,14,29.99,29.89,7,3,10,0.00
2014-2-23,74.5,61.7,48.6,31.5,26.0,21.1,38,26,17,30.07,29.94,6,2,7,0.00
2014-2-24,77.5,63.5,52.2,36.7,30.8,24.0,38,29,20,30.04,29.93,6,3,8,0.00
2014-2-25,72.4,61.8,52.1,39.2,34.5,30.0,47,36,27,30.03,29.96,9,2,11,0.00
2014-2-26,77.6,64.1,50.7,44.9,38.5,35.3,61,40,23,30.07,29.91,7,3,10,0.00
2014-2-27,77.2,63.0,49.3,43.6,39.0,35.8,62,42,25,30.03,29.85,10,3,15,0.00
2014-2-28,79.2,66.0,51.3,46.0,39.8,36.3,61,40,23,29.92,29.82,12,5,15,0.00
2014-3-1,67.6,59.1,53.1,51.1,44.7,38.0,85,60,34,29.97,29.85,16,8,22,0.16
2014-3-2,64.8,54.3,44.6,52.6,44.1,40.0,93,70,45,30.17,29.92,14,3,18,0.27
2014-3-3,70.8,59.1,48.3,48.1,44.9,41.2,80,60,41,30.12,29.94,8,4,10,0.00
2014-3-4,72.6,59.9,51.2,48.3,44.0,41.8,75,57,36,30.00,29.87,8,3,11,0.00
2014-3-5,77.7,62.6,48.1,47.8,40.7,33.7,71,47,25,30.08,29.98,7,4,11,0.00
2014-3-6,81.4,65.1,52.7,41.7,36.2,32.3,50,36,17,30.07,29.91,9,4,11,0.00
2014-3-7,77.7,63.4,49.9,44.0,38.9,35.7,61,42,21,29.94,29.82,11,4,20,0.00
2014-3-8,73.9,62.0,50.5,42.4,34.8,26.2,61,38,21,30.12,29.93,9,4,12,0.00
2014-3-9,74.9,62.8,50.4,32.6,28.3,24.5,43,27,17,30.25,30.06,11,5,15,0.00
2014-3-10,78.6,62.1,44.5,37.9,31.9,25.1,50,33,22,30.14,29.98,9,3,13,0.00
2014-3-11,77.2,63.5,49.8,42.6,34.8,32.4,56,35,20,30.04,29.93,8,4,12,0.00
2014-3-12,80.7,65.2,47.7,40.4,34.6,31.7,55,34,19,30.06,29.94,7,3,12,0.00
2014-3-13,78.6,64.7,49.5,37.6,33.6,30.5,48,32,20,29.98,29.81,12,3,15,0.00
2014-3-14,72.4,61.4,51.1,38.5,34.0,30.0,48,36,24,30.08,29.90,11,4,15,0.00
2014-3-15,74.2,62.3,46.6,39.7,30.3,14.1,58,33,13,30.18,30.04,16,5,20,0.00
2014-3-16,77.1,63.5,50.9,24.9,19.3,13.2,25,18,13,30.31,30.13,11,5,13,0.00
2014-3-17,81.1,63.9,44.8,31.5,24.3,20.0,41,23,12,30.15,29.70,11,4,15,0.00
2014-3-18,76.9,64.2,51.6,29.6,22.4,16.8,32,20,12,29.94,29.70,8,4,13,0.00
2014-3-19,78.9,63.4,46.3,29.3,22.8,17.3,34,22,12,30.09,29.93,7,3,11,0.00
2014-3-20,81.4,65.7,47.3,32.4,26.6,20.1,38,23,14,30.10,29.89,7,3,10,0.00
2014-3-21,80.9,66.1,51.9,34.9,28.6,24.1,38,25,15,29.99,29.88,9,3,12,0.00
2014-3-22,79.9,64.9,49.6,33.0,27.4,22.4,35,25,15,30.03,29.92,8,4,12,0.00
2014-3-23,82.0,66.3,49.5,36.6,30.1,25.7,44,27,15,30.12,29.97,9,3,11,0.00
2014-3-24,83.2,68.0,53.0,38.1,31.5,28.0,45,26,15,30.09,29.97,6,3,10,0.00
2014-3-25,82.0,65.4,51.5,36.9,32.7,27.6,42,30,17,29.98,29.80,16,4,21,0.00
2014-3-26,78.6,64.4,50.6,40.0,34.2,26.8,48,33,19,29.90,29.75,15,6,17,0.00
2014-3-27,71.2,58.9,49.3,45.9,37.8,31.0,72,47,24,30.02,29.89,12,4,17,0.00
2014-3-28,74.5,61.0,46.7,38.9,32.8,29.1,56,35,21,30.15,30.01,9,4,13,0.00
2014-3-29,85.1,66.4,48.9,36.3,30.4,26.0,44,28,12,30.16,29.95,9,4,12,0.00
2014-3-30,77.9,64.9,53.1,36.4,30.2,25.8,42,27,17,29.98,29.88,11,4,14,0.00
2014-3-31,81.4,65.2,47.1,34.7,27.7,24.7,48,26,13,30.04,29.89,10,4,16,0.00
2014-4-1,79.1,66.5,52.5,28.4,23.2,19.4,32,20,11,29.96,29.83,13,6,18,0.00
2014-4-2,67.2,57.7,48.3,36.5,29.3,23.8,49,34,22,29.95,29.84,13,6,18,0.00
2014-4-3,67.8,55.9,43.1,30.7,26.4,23.4,51,33,19,30.06,29.95,11,4,14,0.00
2014-4-4,77.7,60.9,44.8,31.7,25.3,18.1,43,27,15,30.01,29.81,8,4,11,0.00
2014-4-5,72.7,61.1,49.2,28.9,25.1,20.2,37,25,18,29.94,29.81,9,3,13,0.00
2014-4-6,74.2,61.2,46.2,31.2,25.7,21.8,42,26,16,30.02,29.92,12,4,18,0.00
2014-4-7,85.9,67.5,50.8,32.8,27.8,23.0,35,23,13,30.17,30.00,13,6,17,0.00
2014-4-8,91.2,71.7,52.0,35.6,28.0,22.0,37,21,9,30.22,30.07,8,3,10,0.00
2014-4-9,90.3,73.4,54.2,33.7,26.9,22.4,36,18,10,30.15,30.00,8,4,11,0.00
2014-4-10,93.8,75.1,56.6,33.0,25.9,20.4,32,17,7,30.10,29.91,9,3,12,0.00
2014-4-11,93.5,76.5,61.5,37.2,30.5,23.9,32,19,12,30.04,29.82,9,3,13,0.00
2014-4-12,83.2,73.2,59.9,34.4,28.7,22.9,28,19,13,29.91,29.72,12,6,16,0.00
2014-4-13,84.4,68.7,51.5,37.8,30.9,25.3,40,25,15,29.93,29.79,11,4,15,0.00
2014-4-14,83.7,69.2,58.0,33.8,25.2,19.9,37,20,11,30.09,29.93,11,6,15,0.00
2014-4-15,89.0,70.7,53.4,31.6,24.2,17.8,26,17,10,30.02,29.78,7,4,10,0.00
2014-4-16,87.1,70.8,51.9,31.7,24.8,19.7,34,18,10,29.89,29.73,11,4,16,0.00
2014-4-17,91.8,73.5,55.3,37.6,32.1,23.8,36,22,12,29.99,29.84,6,3,10,0.00
2014-4-18,75.5,68.0,61.2,44.8,40.1,33.8,49,36,23,30.05,29.91,10,3,16,0.00
2014-4-19,81.6,67.2,58.0,52.0,44.2,40.0,74,44,24,30.07,29.92,10,4,14,0.06
2014-4-20,86.3,70.5,55.4,46.9,43.3,39.2,60,39,22,30.13,29.98,9,4,12,0.00
2014-4-21,93.0,76.7,59.8,45.9,41.2,38.0,47,29,17,30.12,29.91,6,3,8,0.00
2014-4-22,92.6,76.8,62.2,45.1,39.4,32.9,46,27,14,29.98,29.75,12,5,14,0.00
2014-4-23,82.6,71.6,61.0,41.3,31.9,22.7,39,24,13,29.94,29.81,13,5,17,0.00
2014-4-24,87.4,70.8,53.5,33.6,27.8,21.1,35,20,12,30.01,29.86,9,4,13,0.00
2014-4-25,88.6,72.7,56.5,35.5,31.4,28.1,42,22,13,29.95,29.74,10,5,17,0.00
2014-4-26,67.3,62.2,51.7,51.7,34.8,25.8,80,37,23,29.90,29.68,18,7,23,0.04
2014-4-27,75.6,60.3,46.0,38.7,33.7,28.9,63,39,20,29.96,29.85,8,3,12,0.00
2014-4-28,80.7,65.8,50.1,37.5,33.5,28.8,48,31,18,30.00,29.90,12,4,16,0.00
2014-4-29,82.7,68.9,60.3,32.4,22.1,16.1,32,17,11,30.06,29.93,15,9,20,0.00
2014-4-30,83.6,68.2,54.5,30.3,22.5,15.6,28,17,13,30.05,29.85,14,6,18,0.00
2014-5-1,85.7,71.7,57.3,36.2,30.4,22.6,32,21,15,30.05,29.89,14,5,20,0.00
2014-5-2,90.6,72.8,55.1,34.1,27.8,18.7,31,19,11,30.12,29.95,9,4,12,0.00
2014-5-3,96.8,77.6,58.7,36.5,30.8,25.8,31,18,10,30.07,29.90,6,3,9,0.00
2014-5-4,96.3,78.4,61.5,36.7,30.5,24.4,31,18,10,30.07,29.90,10,4,14,0.00
2014-5-5,91.8,77.3,61.7,37.7,31.9,26.4,37,19,12,30.04,29.86,10,5,21,0.00
2014-5-6,85.7,73.5,62.5,36.6,29.4,23.5,35,20,10,29.89,29.67,12,7,17,0.00
2014-5-7,73.6,63.5,53.7,40.5,33.8,26.5,47,34,18,29.92,29.75,12,4,17,0.00
2014-5-8,77.3,65.6,51.2,38.5,34.0,30.3,50,32,19,30.02,29.91,8,4,12,0.00
2014-5-9,83.1,69.6,54.4,36.9,33.3,30.4,44,27,16,30.05,29.91,8,4,13,0.00
2014-5-10,90.8,74.1,56.2,41.6,36.6,31.6,41,26,15,29.94,29.68,12,5,19,0.00
2014-5-11,77.2,69.3,59.4,44.3,32.3,19.9,40,26,14,29.95,29.70,14,7,18,0.00
2014-5-12,83.1,66.5,50.7,34.0,27.0,19.3,35,23,13,30.05,29.92,12,4,15,0.00
2014-5-13,88.6,73.2,61.7,32.2,25.7,18.6,23,17,12,30.13,30.02,10,7,14,0.00
2014-5-14,88.8,73.2,56.8,36.0,29.1,19.0,34,19,13,30.19,30.05,8,4,12,0.00
2014-5-15,95.5,76.5,58.4,35.5,30.9,26.5,34,19,11,30.18,30.00,7,3,10,0.00
2014-5-16,98.2,80.2,61.5,38.6,32.4,27.5,37,18,10,30.10,29.90,10,4,15,0.00
2014-5-17,99.6,81.6,65.3,37.3,31.5,24.3,32,17,8,30.01,29.50,9,4,16,0.00
2014-5-18,97.3,80.2,61.9,35.3,28.7,21.9,31,16,8,29.94,29.77,9,4,14,0.00
2014-5-19,95.5,82.8,71.9,37.0,28.9,22.4,25,14,9,29.94,29.82,9,6,14,0.00
2014-5-20,94.1,79.5,63.7,36.7,31.2,25.5,30,17,11,29.97,29.84,13,6,16,0.00
2014-5-21,90.1,76.4,62.3,34.6,29.8,25.3,30,18,10,29.96,29.85,14,6,20,0.00
2014-5-22,90.0,74.1,58.3,36.7,30.4,23.3,33,20,13,29.99,29.83,15,5,18,0.00
2014-5-23,86.1,71.7,59.2,39.7,31.1,27.1,37,23,11,29.99,29.84,12,4,16,0.00
2014-5-24,84.3,71.9,59.0,42.2,38.8,34.9,49,31,17,30.01,29.88,8,3,12,0.00
2014-5-25,88.3,76.8,67.8,46.1,42.3,37.2,43,29,20,29.99,29.88,12,4,15,0.00
2014-5-26,95.8,80.3,64.7,46.8,43.2,38.0,45,27,17,30.06,29.91,11,4,15,0.00
2014-5-27,101.5,85.1,67.6,48.3,44.1,39.6,42,24,15,30.07,29.86,9,4,12,0.00
2014-5-28,100.5,84.9,70.9,46.4,40.5,35.4,34,21,13,29.98,29.79,9,4,14,0.00
2014-5-29,88.9,81.2,74.6,52.7,45.2,37.0,38,27,21,30.08,29.89,11,4,13,0.00
2014-5-30,100.0,84.3,68.0,51.5,47.1,41.7,47,28,16,29.97,29.80,7,3,10,0.00
2014-5-31,103.0,86.7,70.6,48.3,43.9,39.1,37,23,13,29.95,29.79,10,4,15,0.00
2014-6-1,101.7,85.5,70.0,43.9,39.7,35.1,30,20,12,29.95,29.80,7,4,11,0.00
2014-6-2,105.7,87.7,68.9,42.3,38.2,33.8,29,18,10,29.94,29.80,8,4,12,0.00
2014-6-3,105.0,88.4,72.3,46.3,41.3,35.0,36,20,12,29.93,29.79,10,4,14,0.00
2014-6-4,104.5,88.3,72.4,39.5,34.1,26.5,25,14,8,29.92,29.76,11,4,14,0.00
2014-6-5,104.1,87.1,68.8,37.0,32.5,26.9,25,14,8,29.86,29.70,9,4,14,0.00
2014-6-6,101.6,84.3,66.3,36.1,30.7,23.8,28,15,8,29.85,29.71,8,3,11,0.00
2014-6-7,102.5,84.7,66.9,45.0,36.0,26.7,31,18,10,29.86,29.70,9,4,13,0.00
2014-6-8,101.2,85.3,70.6,50.8,42.0,35.3,33,22,15,29.90,29.75,8,4,13,0.00
2014-6-9,103.6,87.1,71.9,53.2,44.6,34.9,44,24,10,29.95,29.77,9,4,13,0.00
2014-6-10,103.9,87.7,71.6,53.8,45.2,32.9,41,23,10,29.93,29.77,10,4,15,0.00
2014-6-11,99.8,87.0,74.8,56.5,49.4,35.9,44,28,16,29.95,29.84,13,5,17,0.00
2014-6-12,103.0,87.5,72.7,53.6,47.9,41.1,37,26,14,30.01,29.84,11,4,14,0.00
2014-6-13,101.7,89.1,75.7,56.3,53.1,48.5,45,30,18,29.98,29.78,13,5,17,0.00
2014-6-14,99.9,87.2,73.9,50.3,47.2,41.6,40,25,15,29.90,29.75,13,6,21,0.00
2014-6-15,97.9,84.5,68.1,47.2,40.6,34.8,45,23,11,29.91,29.80,12,5,17,0.00
2014-6-16,98.9,86.3,70.9,49.1,43.5,33.4,33,22,16,29.96,29.83,14,6,18,0.00
2014-6-17,97.2,86.7,76.4,54.5,49.7,45.3,37,27,22,29.99,29.84,14,6,18,0.00
2014-6-18,94.5,84.4,74.9,51.5,48.1,44.9,35,28,20,29.95,29.85,12,6,18,0.00
2014-6-19,98.5,83.5,68.2,51.2,46.3,41.7,42,27,18,30.03,29.87,9,4,13,0.00
2014-6-20,101.3,87.6,74.2,48.1,44.2,40.0,32,22,15,30.01,29.83,11,5,16,0.00
2014-6-21,101.8,87.8,72.4,49.9,47.0,42.2,39,25,16,30.00,29.84,9,4,13,0.00
2014-6-22,102.3,87.4,72.4,50.8,45.3,39.6,34,23,16,30.01,29.83,12,4,15,0.00
2014-6-23,101.8,86.6,70.9,49.1,42.0,35.3,36,21,13,30.00,29.84,9,4,14,0.00
2014-6-24,101.2,87.6,74.4,50.1,42.7,34.5,26,20,15,30.07,29.87,11,5,16,0.00
2014-6-25,102.2,87.7,72.7,53.4,48.1,43.4,39,25,17,30.02,29.82,10,4,15,0.00
2014-6-26,101.8,88.6,76.5,57.1,48.5,38.1,41,26,13,29.98,29.78,12,5,18,0.00
2014-6-27,99.7,85.8,70.7,47.1,43.2,37.0,40,22,15,29.88,29.74,11,5,15,0.00
2014-6-28,101.9,86.8,71.4,50.8,46.7,42.8,42,25,15,29.94,29.81,9,4,14,0.00
2014-6-29,105.3,89.5,75.7,61.2,53.4,45.9,49,30,14,30.02,29.84,9,4,13,0.00
2014-6-30,104.0,89.7,75.7,59.4,51.6,41.9,54,29,14,30.00,29.82,9,4,13,0.00
2014-7-1,104.4,87.5,73.5,50.0,46.3,42.3,41,24,14,29.98,29.81,8,4,14,0.00
2014-7-2,102.5,89.7,77.8,56.9,51.1,42.7,38,26,18,30.03,29.85,12,5,16,0.00
2014-7-3,101.7,83.1,68.9,68.3,60.1,53.4,92,51,22,30.14,29.89,19,5,29,0.00
2014-7-4,94.1,80.9,71.9,67.4,64.0,58.3,85,58,31,30.16,30.02,9,4,12,0.00
2014-7-5,95.0,81.5,73.0,67.1,64.0,61.1,76,55,37,30.18,30.01,16,4,21,0.02
2014-7-6,99.2,85.5,73.8,67.5,62.1,57.1,69,47,26,30.12,29.89,9,4,11,0.00
2014-7-7,92.2,83.1,79.1,65.5,63.4,60.2,60,51,38,30.02,29.90,14,5,21,0.00
2014-7-8,98.3,83.2,71.5,66.7,64.0,60.3,79,53,30,30.07,29.91,11,4,16,0.40
2014-7-9,93.4,81.2,69.4,69.4,63.4,57.7,87,57,30,30.11,29.93,10,4,14,0.01
2014-7-10,96.7,84.5,74.8,65.3,62.2,59.7,68,48,30,30.05,29.87,11,4,14,0.00
2014-7-11,97.7,85.3,77.0,65.2,62.8,60.3,65,47,30,30.06,29.91,14,4,18,0.00
2014-7-12,97.0,83.3,73.2,66.9,63.1,59.3,75,52,29,30.06,29.94,11,4,19,0.00
2014-7-13,100.8,83.0,73.6,68.4,62.8,58.8,75,52,28,30.08,29.91,12,4,18,0.00
2014-7-14,94.6,80.6,72.1,68.9,66.5,63.0,82,63,37,30.13,30.01,11,4,17,0.00
2014-7-15,85.2,77.3,68.5,74.0,66.0,62.4,92,68,54,30.18,29.98,9,3,12,0.42
2014-7-16,96.5,83.4,71.2,68.5,62.6,55.3,82,52,28,30.07,29.89,10,4,14,0.00
2014-7-17,96.8,84.5,75.3,63.0,55.1,46.2,61,38,20,30.04,29.89,7,3,12,0.00
2014-7-18,95.3,83.6,71.4,61.9,51.7,47.3,50,33,23,30.06,29.92,7,3,10,0.00
2014-7-19,99.1,86.4,75.2,60.0,55.9,49.3,56,36,24,30.07,29.92,7,3,11,0.00
2014-7-20,100.9,87.0,74.4,57.7,51.2,46.7,53,30,17,30.10,29.95,8,3,12,0.00
2014-7-21,100.2,87.4,75.2,59.9,50.9,46.5,54,29,18,30.13,29.98,10,4,13,0.00
2014-7-22,104.7,90.6,77.7,58.3,53.9,47.8,48,29,20,30.10,29.96,7,4,10,0.00
2014-7-23,102.8,91.2,82.0,65.8,60.5,52.9,51,36,24,30.10,29.93,8,4,17,0.00
2014-7-24,105.6,90.9,76.6,67.0,59.5,51.6,66,38,18,30.02,29.84,10,3,13,0.00
2014-7-25,98.5,82.8,70.1,69.5,65.0,59.6,87,57,31,30.07,29.93,19,4,22,0.00
2014-7-26,96.7,83.4,70.5,67.1,64.2,61.4,80,54,31,30.10,29.92,10,4,13,0.00
2014-7-27,96.0,85.1,72.8,66.3,61.5,58.1,74,46,30,30.17,29.98,12,6,15,0.00
2014-7-28,93.1,83.4,73.8,66.1,62.7,59.4,70,50,35,30.20,30.04,10,3,13,0.00
2014-7-29,101.5,87.3,75.2,66.1,61.1,56.0,68,43,22,30.13,29.93,8,3,10,0.00
2014-7-30,101.7,89.0,77.1,62.4,58.5,55.9,58,36,22,30.06,29.91,10,4,14,0.00
2014-7-31,95.4,87.3,80.9,62.6,59.2,56.2,49,38,28,30.08,29.92,8,3,10,0.00
2014-8-1,91.9,79.3,70.3,69.8,65.2,59.3,87,64,35,30.13,29.92,15,5,18,0.00
2014-8-2,85.9,76.1,72.5,69.3,66.9,63.6,87,73,49,30.10,29.98,9,3,12,0.00
2014-8-3,96.6,81.8,69.8,70.9,64.3,57.0,91,60,29,30.08,29.93,7,3,11,0.00
2014-8-4,97.7,84.9,73.5,65.2,58.2,48.6,69,42,19,30.08,29.93,9,3,13,0.00
2014-8-5,99.3,84.6,70.6,57.9,52.1,48.2,58,34,17,30.11,29.96,7,3,11,0.00
2014-8-6,100.5,86.5,72.2,58.8,53.2,44.8,55,33,18,30.08,29.91,9,3,13,0.00
2014-8-7,97.1,85.1,72.2,58.7,51.5,47.8,51,32,20,30.06,29.90,8,3,12,0.00
2014-8-8,97.6,85.2,74.4,64.7,59.2,50.6,64,43,23,30.07,29.87,8,4,12,0.00
2014-8-9,95.2,84.2,74.7,63.8,60.2,54.8,66,45,27,30.09,29.92,13,5,16,0.00
2014-8-10,93.0,82.4,73.4,68.1,61.1,57.8,61,48,34,30.09,29.95,10,3,13,0.00
2014-8-11,98.4,86.1,76.8,65.6,61.6,58.3,63,44,28,30.07,29.93,10,3,14,0.00
2014-8-12,88.8,78.4,69.7,70.1,65.3,60.5,93,66,44,30.09,30.00,9,3,12,0.06
2014-8-13,88.9,79.2,70.4,71.4,68.3,65.4,93,71,48,30.11,29.98,12,3,15,0.00
2014-8-14,89.6,79.5,73.1,69.7,66.6,62.6,81,64,46,30.09,29.98,10,3,15,0.01
2014-8-15,91.2,81.4,72.8,69.3,65.1,57.7,79,58,37,30.11,29.97,10,3,13,0.00
2014-8-16,97.2,83.4,73.4,68.7,64.1,56.3,75,53,30,30.12,29.95,11,4,17,0.00
2014-8-17,99.1,85.4,75.9,66.6,61.7,57.4,62,45,29,30.08,29.89,14,5,19,0.00
2014-8-18,92.6,81.4,67.6,64.9,62.4,58.1,84,53,35,30.05,29.89,11,5,16,0.76
2014-8-19,83.0,73.9,67.9,72.3,67.4,63.3,93,80,62,30.00,29.87,9,4,13,0.21
2014-8-20,88.7,78.4,68.8,67.8,63.0,57.2,85,61,38,30.04,29.89,9,2,12,0.00
2014-8-21,82.2,75.7,70.6,66.8,63.6,59.8,73,65,55,30.09,29.98,6,2,11,0.00
2014-8-22,89.4,78.1,67.1,66.5,61.2,57.3,83,58,35,30.08,29.93,8,3,11,0.00
2014-8-23,92.9,80.7,69.5,64.8,59.7,55.6,73,50,30,30.04,29.88,6,3,9,0.00
2014-8-24,94.3,82.7,69.0,64.6,58.6,52.9,69,45,26,29.99,29.86,7,3,11,0.00
2014-8-25,93.7,79.6,73.0,71.3,64.0,59.3,73,59,43,30.05,29.93,12,3,15,0.00
2014-8-26,91.7,77.5,71.3,68.4,66.0,63.0,84,69,39,30.10,29.97,8,3,12,0.06
2014-8-27,92.3,80.6,69.3,70.3,65.0,60.0,85,61,36,30.15,30.00,8,4,10,0.01
2014-8-28,95.7,83.6,71.3,64.6,58.2,51.2,67,43,24,30.08,29.89,9,4,12,0.00
2014-8-29,98.5,84.7,69.8,58.0,51.4,45.9,55,33,18,29.98,29.82,8,4,12,0.00
2014-8-30,101.4,86.1,70.5,56.0,50.8,46.1,50,30,17,29.98,29.81,6,3,11,0.00
2014-8-31,99.7,85.8,71.6,58.1,51.9,46.8,53,32,17,29.99,29.84,10,4,15,0.00
2014-9-1,99.4,84.2,70.2,56.2,52.9,50.2,52,35,21,29.99,29.84,6,3,9,0.00
2014-9-2,100.7,86.7,72.8,57.6,51.9,47.7,48,30,19,30.00,29.79,7,3,9,0.00
2014-9-3,97.6,85.2,72.8,61.1,55.5,51.9,57,36,23,29.92,29.76,8,3,12,0.00
2014-9-4,97.7,84.4,67.9,65.3,58.8,54.4,86,44,25,30.05,29.74,13,5,19,0.00
2014-9-5,91.7,79.6,68.6,67.9,63.9,60.4,84,60,36,30.05,29.92,7,3,10,0.00
2014-9-6,90.6,79.4,72.5,67.8,64.3,59.7,72,60,43,30.07,29.95,10,3,13,0.00
2014-9-7,94.4,82.0,71.2,68.9,65.9,62.8,80,60,36,30.03,29.85,8,3,12,0.00
2014-9-8,80.0,74.0,68.3,73.8,68.6,65.2,94,83,65,30.05,29.93,9,2,12,0.00
2014-9-9,84.2,75.8,68.3,72.8,67.1,64.6,93,75,53,30.06,29.93,6,3,8,0.00
2014-9-10,89.5,77.7,67.5,67.9,62.5,55.0,87,62,33,30.05,29.89,7,3,9,0.00
2014-9-11,93.6,80.7,68.6,65.9,60.2,54.1,78,52,26,29.99,29.85,6,3,10,0.00
2014-9-12,96.1,82.5,70.4,64.1,60.1,56.8,65,47,30,29.96,29.80,10,3,13,0.00
2014-9-13,91.2,81.5,71.2,65.2,60.8,57.4,73,50,34,29.98,29.85,9,4,12,0.00
2014-9-14,93.5,81.3,68.4,64.7,60.4,58.1,70,50,33,29.98,29.84,7,3,10,0.00
2014-9-15,94.2,83.6,71.6,65.8,62.0,59.6,67,49,33,30.01,29.90,8,3,10,0.00
2014-9-16,81.6,75.9,70.3,69.6,66.1,60.6,88,72,52,30.07,29.89,7,3,10,0.00
2014-9-17,82.3,74.2,71.2,73.2,67.8,64.7,93,81,59,29.93,29.79,8,2,11,0.00
2014-9-18,79.3,74.5,70.4,69.1,66.4,64.5,85,75,65,29.90,29.81,5,2,7,0.00
2014-9-19,85.7,75.9,70.5,73.8,68.4,64.6,89,77,60,29.96,29.86,6,2,8,0.00
2014-9-20,87.4,78.7,70.3,71.3,67.6,65.1,85,69,52,30.03,29.91,7,2,9,0.00
2014-9-21,92.0,80.5,70.7,66.3,62.9,57.1,74,56,35,30.08,29.95,8,3,11,0.00
2014-9-22,92.5,82.1,71.6,67.6,63.0,59.0,74,53,35,30.11,29.97,8,3,12,0.00
2014-9-23,94.5,82.8,71.6,66.4,60.3,53.4,65,47,33,30.10,29.91,8,3,10,0.00
2014-9-24,97.4,84.1,71.1,63.5,58.7,51.4,60,42,30,30.06,29.91,5,2,8,0.00
2014-9-25,97.1,84.3,73.0,65.3,61.4,58.5,66,46,28,30.08,29.92,8,3,10,0.00
2014-9-26,87.5,79.0,74.1,66.7,63.1,59.7,66,58,47,30.05,29.91,9,3,10,0.00
2014-9-27,86.9,77.1,68.6,64.5,61.3,59.6,75,59,41,29.95,29.75,11,5,16,0.00
2014-9-28,86.7,78.0,72.6,64.4,57.6,45.2,69,51,32,29.96,29.86,10,6,15,0.00
2014-9-29,86.5,75.2,65.6,60.4,49.0,40.4,61,40,24,29.98,29.87,8,3,11,0.00
2014-9-30,85.8,71.7,57.2,49.3,43.1,40.0,58,37,21,29.96,29.84,7,3,10,0.00
2014-10-1,87.1,72.9,58.3,50.4,44.3,40.6,59,37,22,29.93,29.82,7,3,10,0.00
2014-10-2,89.3,74.1,59.6,46.1,42.1,35.7,53,33,19,30.10,29.94,8,4,12,0.00
2014-10-3,94.3,75.5,58.4,45.2,39.8,34.4,45,29,15,30.14,30.00,6,3,7,0.00
2014-10-4,94.5,77.4,62.3,51.3,42.7,36.7,43,29,17,30.11,29.96,8,3,12,0.00
2014-10-5,90.8,76.6,63.2,54.3,48.1,40.1,55,37,26,30.08,29.91,7,3,12,0.00
2014-10-6,88.9,74.9,63.3,50.5,44.6,40.4,52,34,21,30.05,29.95,7,3,10,0.00
2014-10-7,86.8,75.7,65.4,57.9,48.0,42.9,60,38,24,30.06,29.93,10,3,13,0.00
2014-10-8,72.2,67.3,65.0,65.4,62.2,56.3,94,84,57,30.00,29.84,9,3,11,0.00
2014-10-9,68.9,65.0,61.5,66.6,62.8,58.6,97,92,83,30.01,29.91,8,3,15,0.00
2014-10-10,80.4,69.6,58.7,64.5,60.0,56.1,91,72,50,30.08,29.98,8,4,11,0.00
2014-10-11,71.9,62.9,58.4,59.2,55.2,51.9,80,75,63,30.08,30.01,4,2,5,0.00
2014-10-12,83.9,74.1,66.1,51.7,48.5,46.4,55,40,30,29.96,29.88,9,3,12,0.00
2014-10-13,84.0,71.4,63.0,51.7,42.0,33.6,63,35,23,30.11,29.96,8,4,9,0.00
2014-10-14,89.2,71.4,56.4,50.5,43.4,37.3,54,37,20,30.09,29.93,6,3,6,0.00
2014-10-15,89.8,72.8,59.6,53.5,48.8,42.7,58,43,26,30.04,29.94,7,3,10,0.00
2014-10-16,69.0,65.2,61.6,52.1,51.1,50.3,67,60,53,30.02,29.96,5,2,6,0.00
2014-10-17,85.5,75.7,66.9,53.4,47.8,45.5,46,37,25,29.97,29.89,6,4,7,0.00
2014-10-18,88.7,72.6,59.0,55.0,48.8,45.0,62,44,25,29.94,29.81,10,3,15,0.00
2014-10-19,85.6,69.4,61.4,56.9,51.5,47.9,71,54,29,29.95,29.80,12,3,16,0.09
2014-10-20,82.3,69.0,56.9,56.7,52.1,49.0,75,56,35,29.99,29.87,6,3,8,0.00
2014-10-21,84.1,70.6,58.1,56.8,52.0,49.2,76,53,32,29.97,29.86,5,3,7,0.00
2014-10-22,86.7,72.3,58.5,56.6,51.6,48.6,71,49,30,30.05,29.93,6,3,8,0.00
2014-10-23,88.3,73.1,60.4,56.0,50.8,47.7,64,47,27,30.14,30.01,6,3,9,0.00
2014-10-24,91.6,76.6,61.3,55.7,50.3,46.7,59,40,25,30.15,30.03,6,3,7,0.00
2014-10-25,92.5,77.1,61.8,57.3,52.1,46.9,61,42,26,30.16,29.99,8,3,10,0.00
2014-10-26,84.3,74.1,64.4,59.2,55.5,52.5,68,52,40,30.03,29.86,7,2,10,0.00
2014-10-27,82.6,71.5,64.2,58.5,53.5,50.0,70,53,34,29.99,29.85,6,2,9,0.00
2014-10-28,83.5,69.7,57.4,57.2,50.6,45.6,73,51,31,30.10,29.99,7,3,9,0.00
2014-10-29,86.5,70.5,56.3,53.2,47.0,43.0,64,44,26,30.13,30.01,6,2,7,0.00
2014-10-30,88.0,71.4,56.6,49.9,44.1,40.7,57,38,20,30.12,29.99,5,2,6,0.00
2014-10-31,88.0,73.9,60.6,52.1,47.8,40.7,58,40,28,30.03,29.87,9,4,11,0.00
2014-11-1,83.4,73.3,64.1,52.0,48.5,43.9,62,42,24,29.96,29.87,11,5,14,0.00
2014-11-2,69.7,63.1,54.4,52.4,46.1,35.3,67,54,39,30.01,29.91,11,5,14,0.00
2014-11-3,67.3,56.9,46.8,40.3,34.7,30.3,63,44,27,30.08,29.98,11,4,14,0.00
2014-11-4,73.0,57.7,44.4,37.9,33.3,30.2,58,41,25,30.15,30.02,10,3,16,0.00
2014-11-5,77.8,62.4,50.1,43.9,37.5,33.3,57,40,24,30.17,30.03,6,3,9,0.00
2014-11-6,80.0,65.2,52.1,45.1,40.0,34.0,53,40,27,30.30,30.18,8,3,11,0.00
2014-11-7,79.2,63.9,51.4,46.6,41.3,35.2,60,44,28,30.23,30.04,6,3,9,0.00
2014-11-8,84.4,65.9,51.2,44.1,38.5,34.0,55,37,21,30.15,30.05,5,2,5,0.00
2014-11-9,82.8,65.8,52.6,44.5,39.5,35.3,53,39,22,30.09,29.87,4,2,8,0.00
2014-11-10,81.5,66.8,52.8,44.5,40.0,37.2,57,38,21,29.92,29.80,12,3,14,0.00
2014-11-11,79.9,68.4,60.1,49.3,47.1,41.4,60,47,31,29.98,29.87,9,4,12,0.00
2014-11-12,77.6,66.3,57.7,52.7,47.9,45.5,70,52,32,30.02,29.89,7,3,10,0.00
2014-11-13,77.4,64.3,52.7,53.6,46.7,43.5,74,54,34,30.08,29.97,9,2,13,0.00
2014-11-14,72.6,62.1,53.7,54.3,48.0,43.0,71,59,48,30.01,29.92,10,2,12,0.00
2014-11-15,73.5,61.9,52.6,51.4,45.8,41.6,78,57,36,30.07,29.94,7,2,10,0.00
2014-11-16,66.3,57.5,48.8,49.7,36.3,14.8,74,49,23,30.15,29.90,10,5,12,0.00
2014-11-17,67.3,53.5,42.1,27.0,20.5,14.1,37,27,20,30.20,30.07,8,4,11,0.00
2014-11-18,70.9,54.1,40.3,30.0,24.3,18.6,44,32,19,30.25,30.13,6,3,7,0.00
2014-11-19,71.5,55.0,39.9,29.9,23.5,19.2,45,30,16,30.20,30.05,5,3,8,0.00
2014-11-20,71.8,56.3,43.1,31.8,24.6,19.4,47,30,17,30.11,29.97,5,2,7,0.00
2014-11-21,69.2,54.8,46.6,34.7,29.1,23.7,50,38,22,30.00,29.86,8,2,10,0.00
2014-11-22,69.9,54.6,41.0,40.2,32.4,28.2,65,44,25,30.13,29.97,6,2,7,0.00
2014-11-23,65.6,54.6,45.6,39.5,29.1,9.5,58,39,18,30.15,29.94,10,4,13,0.00
2014-11-24,63.2,52.0,41.0,21.1,13.8,8.1,30,21,15,30.33,30.12,9,5,12,0.00
2014-11-25,64.3,50.9,37.8,20.9,14.1,10.9,34,23,15,30.45,30.29,8,4,11,0.00
2014-11-26,72.4,53.2,39.2,26.4,20.4,12.0,38,28,17,30.33,30.19,7,3,8,0.00
2014-11-27,82.6,62.3,46.8,37.4,29.0,22.3,42,29,16,30.25,30.12,7,3,8,0.00
2014-11-28,81.6,62.4,47.6,35.5,29.3,23.4,41,29,16,30.13,29.96,6,3,7,0.00
2014-11-29,79.0,61.4,47.1,38.4,31.1,26.9,49,33,18,30.03,29.89,6,2,8,0.00
2014-11-30,75.4,61.9,52.1,35.4,30.5,25.9,43,30,21,30.15,29.96,8,3,12,0.00
2014-12-1,70.2,57.0,45.0,38.6,33.1,29.3,55,40,28,30.22,30.07,5,2,6,0.00
2014-12-2,67.1,58.2,49.6,46.9,34.0,27.0,66,40,27,30.11,29.98,6,2,8,0.00
2014-12-3,75.5,64.8,56.3,55.8,51.0,47.1,75,61,45,30.11,30.01,5,2,7,0.00
2014-12-4,62.5,57.4,51.8,57.4,52.5,48.8,93,84,63,30.13,29.99,7,3,11,0.75
2014-12-5,67.6,56.5,48.4,55.2,50.2,45.5,91,80,60,30.21,30.10,5,2,6,0.01
2014-12-6,62.7,55.7,50.7,51.6,48.5,44.9,83,76,63,30.21,30.11,5,3,7,0.00
2014-12-7,70.2,56.9,46.5,52.1,45.9,41.6,84,68,44,30.24,30.10,5,3,7,0.00
2014-12-8,69.8,57.8,49.1,51.0,46.0,42.1,77,65,43,30.15,30.05,5,2,6,0.00
2014-12-9,73.5,59.9,51.1,52.1,46.2,43.0,74,61,37,30.09,29.99,6,3,8,0.00
2014-12-10,73.6,59.2,47.2,53.1,46.4,42.1,84,64,37,30.05,29.93,6,3,8,0.00
2014-12-11,72.6,58.4,47.9,51.6,41.1,35.0,80,56,26,30.09,29.99,7,3,10,0.00
2014-12-12,73.6,61.1,48.0,49.6,41.6,34.9,65,49,33,30.13,29.98,10,4,14,0.00
2014-12-13,60.7,52.6,45.1,50.3,47.3,43.2,95,82,66,30.07,29.99,134,4,16,0.43
2014-12-14,57.0,47.5,38.5,47.8,40.4,36.7,93,77,57,30.13,30.04,7,3,9,0.01
2014-12-15,64.2,49.5,37.6,44.0,38.7,33.0,85,68,36,30.10,29.98,4,2,6,0.00
2014-12-16,63.5,51.8,45.4,44.9,41.1,38.3,76,67,47,30.06,29.95,7,2,9,0.00
2014-12-17,54.4,48.5,45.0,49.2,44.6,39.3,93,86,68,30.13,30.00,6,2,9,0.67
2014-12-18,54.9,47.9,43.1,50.3,44.2,39.2,95,87,63,30.18,30.05,8,3,10,0.04
2014-12-19,58.5,47.2,37.7,45.6,40.5,35.0,90,78,58,30.24,30.10,5,3,9,0.01
2014-12-20,60.3,48.6,39.0,44.3,38.5,33.8,82,69,45,30.16,30.05,6,3,8,0.00
2014-12-21,61.2,49.5,40.8,43.7,38.7,35.5,82,67,44,30.14,30.02,5,2,7,0.00
2014-12-22,62.5,50.9,41.1,45.3,40.1,35.9,83,67,47,30.04,29.90,6,3,9,0.00
2014-12-23,59.3,51.2,45.8,41.0,29.5,18.4,77,47,24,30.16,29.96,15,7,20,0.00
2014-12-24,63.0,48.6,35.2,29.6,24.6,18.5,56,39,23,30.16,29.82,7,3,8,0.00
2014-12-25,65.7,53.1,45.4,38.9,30.1,21.4,75,44,22,29.82,29.65,13,5,16,0.04
2014-12-26,51.8,43.9,36.1,37.8,23.5,18.9,74,45,28,30.08,29.80,6,3,9,0.00
2014-12-27,52.2,40.6,30.7,28.1,23.2,19.9,64,50,34,30.29,30.07,8,3,10,0.00
2014-12-28,55.8,42.3,31.7,29.9,23.6,20.8,64,49,29,30.27,30.12,6,3,9,0.00
2014-12-29,61.6,44.6,32.2,29.8,22.8,17.6,66,45,19,30.16,30.00,5,2,7,0.00
2014-12-30,67.8,49.8,35.8,28.6,22.8,20.0,54,37,15,30.02,29.86,10,3,13,0.00
2014-12-31,55.8,46.2,32.6,38.9,30.2,19.6,89,58,25,29.99,29.79,14,5,18,0.48
2015-1-1,40.0,34.8,31.7,36.9,31.7,29.2,92,88,82,30.07,29.96,5,1,6,0.16
2015-1-2,43.4,34.6,28.1,33.7,28.0,25.1,88,77,59,30.08,29.95,5,2,7,0.01